Temp_Advection
nan nan nan nan nan nan nan nan nan nan nan nan nan nan nan nan nan nan nan nan nan nan nan nan nan nan nan nan nan nan nan nan nan nan nan nan nan nan nan nan nan nan nan nan nan nan nan nan nan
nan 0 -0 -0 -0 0 0 -0 -1 -0 0 -0 -1 -2 -2 -1 -2 -1 -0 -0 -1 -0 0 0 0 -0 -0 0 0 -0 -0 0 0 0 0 0 -0 0 0 -0 -0 -0 -0 0 0 0 0 -0 nan
nan -0 -0 -0 0 -0 -0 0 0 0 -0 -0 -1 -1 -0 -0 -1 -1 -0 -0 -1 -0 -0 0 0 0 -0 -0 0 0 -0 -0 0 0 0 0 0 -0 0 -0 -0 -0 -0 -0 0 0 -0 -0 nan
nan 0 -0 -1 1 -1 -1 -0 -0 0 -0 -0 -1 -1 -1 -0 -1 -1 -0 0 -0 -0 -0 0 0 0 0 -0 0 0 0 0 0 0 0 0 -0 0 0 0 -0 -0 -0 0 0 0 0 0 nan
nan -0 -0 1 0 -0 -1 -1 -0 -0 -0 -2 -1 -1 -0 -1 -1 -1 -1 -0 -0 -0 -0 -0 0 0 0 0 0 0 0 0 0 0 0 0 0 -0 -0 -0 -0 -0 -0 0 0 -0 0 0 nan
nan -0 -0 1 0 0 -0 -1 -0 -0 -0 -1 -2 -1 0 -0 -1 -1 -1 -0 -0 -0 -0 -0 -0 -0 0 0 0 0 0 0 0 0 -0 0 0 0 0 -0 0 -0 -0 -0 -0 0 0 0 nan
nan 0 1 -0 -0 0 0 -0 -0 -0 -0 -0 -2 -2 -0 0 -1 -0 -0 -1 -0 0 0 -0 0 -0 -0 0 0 0 0 -0 -0 0 -0 -0 0 0 0 0 -0 -0 -0 -0 0 0 0 0 nan
nan -0 0 -0 -0 0 0 -0 -0 -1 -0 -0 -0 -1 -1 0 -0 -1 -0 -0 -0 0 0 -0 -0 0 -0 -0 -0 0 0 0 -0 0 -0 -0 0 0 0 -0 0 0 -0 0 0 0 0 0 nan
nan -0 0 -0 -0 -0 0 -0 -0 -0 -0 -1 -2 -2 -1 0 -0 -1 -1 -0 -0 0 0 0 -0 -0 0 0 -0 -0 -0 0 0 0 -0 -0 0 0 -0 -0 0 0 0 0 0 0 0 0 nan
nan 0 -0 0 -0 -0 -0 -0 -0 -0 -1 -1 -1 -2 -2 -0 0 -0 -1 -1 -0 -0 0 1 1 -0 -0 0 0 0 0 0 -0 0 0 -0 -0 0 0 0 0 0 0 0 0 0 -0 0 nan
nan -0 0 -0 -0 -0 -0 -0 -0 -0 -1 -1 -1 -1 -2 -2 -0 -0 -1 -0 -1 -0 -0 0 1 0 0 -0 -0 0 0 0 -0 -0 -0 -0 -0 0 -0 0 -0 0 0 0 0 0 0 0 nan
nan 0 -0 -0 -0 -0 -0 -0 -0 -0 -0 -1 -1 -1 -1 -2 -2 -1 -1 -1 -1 -1 -0 -0 0 0 0 0 0 0 0 -0 -0 -0 0 -0 0 0 0 0 0 0 0 -0 -0 0 0 0 nan
nan -0 -0 -0 -0 -0 0 0 -0 -0 -1 -0 -0 -0 -0 -1 -2 -1 -1 -1 -1 -1 -0 -0 0 0 0 0 0 -0 -0 -0 0 0 0 0 -0 -0 0 0 0 -0 0 0 -0 -0 -0 0 nan
nan -2 0 -0 -0 -0 -0 -0 -0 -0 -0 -0 -0 -0 -0 -0 -1 -0 -1 -1 -1 -1 -1 -0 -0 0 0 0 -0 -0 -0 0 0 0 0 0 -0 0 0 -0 0 -0 -0 -0 0 0 -0 -0 nan
nan 0 -0 -0 -0 -0 -0 0 -0 0 -0 -0 -0 -0 -0 -0 -0 -0 -0 -1 -1 -0 -0 -0 -0 -0 -0 -0 -0 -0 0 0 0 0 0 0 0 0 -0 0 0 -0 -0 -0 -0 -0 -0 -0 nan
nan -1 -1 -3 -4 -1 0 0 -0 0 0 -0 -0 -0 -0 -0 -0 -0 -0 -0 -0 -0 0 -0 -0 -0 -0 -0 -0 0 0 0 0 0 0 0 0 0 0 -0 -0 -0 0 -0 0 -0 -0 -0 nan
nan -0 -1 -0 -2 -1 -1 0 -0 -0 -0 1 1 -0 -0 -1 -0 -0 -0 -0 -0 0 0 0 -0 0 -0 0 0 0 0 0 -0 -0 0 0 0 0 0 0 -0 -0 -0 -0 -0 -0 -0 -0 nan
nan -0 -1 -2 -1 -2 -1 -0 0 0 0 -1 -2 1 0 -0 -0 -0 -0 -0 -0 -0 0 0 0 -0 -0 0 0 0 0 -0 0 -0 0 0 -0 -0 0 0 -0 -0 -0 -0 -0 -0 -0 -0 nan
nan -1 -0 -2 -2 -1 -0 -1 1 1 -0 -0 0 -0 0 -0 0 -0 -0 -0 -0 -0 -0 0 0 -0 0 -0 -0 -0 -0 -0 0 -0 0 -0 -0 -0 0 0 0 -0 -0 -0 -0 -0 -0 -0 nan
nan 0 -0 0 -0 -2 -0 -0 1 1 -1 -0 0 -1 -0 0 -0 -0 -1 -0 -0 -0 0 0 0 -0 -0 -0 -0 -0 -0 -0 0 -0 -0 -0 -0 -0 -0 -0 0 -0 -0 0 -0 -0 -0 -0 nan
nan -0 -0 -0 -1 -0 0 1 -3 -1 -0 -1 -0 -3 0 1 -1 -1 -1 -1 -0 -0 0 -0 -0 -0 -0 0 0 -0 0 0 -0 -0 -0 -1 -0 -0 -0 -0 -0 -0 0 0 0 -0 -0 -0 nan
nan 0 0 -0 0 -0 1 0 0 -0 -1 -2 -1 -2 -0 -1 -1 -0 -1 -1 -1 -1 -0 -0 -0 -0 -0 -0 -0 -0 -0 -0 -0 -0 -0 -0 -0 -0 -0 0 0 -0 -0 0 0 -0 0 -0 nan
nan -0 -1 -1 -0 -0 -2 -1 -1 -1 -1 0 -2 -1 -0 -0 -1 0 -0 -0 -1 -1 -1 -0 -0 -0 -0 -0 -0 -0 -0 -0 -0 0 -0 -0 -0 -0 -0 0 -0 -0 0 0 -0 -0 -0 -0 nan
nan -1 -1 -1 -1 -0 -0 0 -0 -0 -1 -2 -1 -1 -1 -0 -0 -0 -0 -0 -0 -1 -1 -0 -0 -0 -0 -0 -0 -0 -0 -0 -0 -0 -0 -0 -0 0 0 -0 -0 -0 0 0 0 -0 -0 0 nan
nan -2 -0 -0 -0 0 0 -0 -0 -2 -2 -4 -1 -3 -1 -4 -0 -1 -1 -0 -0 -1 -1 -1 -0 -0 0 0 0 0 -0 -0 -0 -0 -0 -0 0 0 0 -0 -0 -0 -0 0 0 -0 -0 -0 nan
nan 0 -0 0 -0 -0 0 0 -0 -6 -11 -2 -1 -2 -2 -2 -0 -2 -1 -1 -1 -1 -0 -0 -0 -0 -0 0 -0 -0 -0 0 0 -0 -0 -0 -0 -0 -0 -0 0 -0 0 0 -0 -0 -0 -0 nan
nan 1 -0 -0 -0 2 -0 -0 -0 -5 -2 -0 -0 -1 -2 -1 -1 -1 -2 -2 -1 -1 -0 -0 -0 -0 0 -0 -0 -0 0 0 -0 -0 -0 -0 -0 -0 -0 0 0 -0 0 0 -0 -0 0 -0 nan
nan -1 0 -0 0 0 -1 -1 -0 -5 -4 0 -0 -0 -1 -1 -0 -0 -1 -1 -1 -0 -0 -0 0 -0 -0 -0 -0 -0 -0 -0 -0 -0 -0 0 0 0 0 0 0 0 0 0 0 -0 -0 -0 nan
nan -0 -1 -0 0 1 -0 -0 -1 -2 -2 -2 0 -0 -0 -0 -1 -0 -0 -0 -0 -0 -0 -0 0 -0 -0 -0 -0 -0 -0 -0 -0 -0 0 0 0 0 0 0 0 0 0 0 0 0 -0 0 nan
nan nan nan nan nan nan nan nan nan nan nan nan nan nan nan nan nan nan nan nan nan nan nan nan nan nan nan nan nan nan nan nan nan nan nan nan nan nan nan nan nan nan nan nan nan nan nan nan nan
Wind_Speed
9 7 15 8 2 3 9 6 7 11 9 10 21 21 22 26 10 9 16 15 16 15 19 19 20 20 22 23 23 22 23 22 21 19 19 18 18 18 17 15 12 9 7 5 4 3 2 2 4
4 4 7 4 2 6 7 8 18 6 7 10 24 29 27 23 23 23 20 16 16 15 18 19 21 20 20 21 22 21 21 20 18 17 17 16 15 14 12 10 8 6 3 3 4 4 4 4 4
5 7 1 3 2 5 9 5 4 7 4 10 21 15 11 10 15 14 20 16 20 17 18 20 20 19 19 20 21 20 19 18 16 15 15 14 13 12 11 9 6 2 4 4 4 2 3 3 4
4 5 5 4 14 16 15 5 4 9 9 15 21 13 19 14 18 21 19 17 14 20 19 21 19 18 19 19 20 19 18 17 15 13 13 13 11 9 7 5 2 5 4 2 0 2 5 8 9
10 7 4 10 15 15 15 18 10 10 5 27 24 19 17 14 24 21 19 17 20 18 22 22 20 19 18 17 17 17 16 15 14 11 9 10 9 7 4 4 5 3 2 3 5 7 8 9 8
6 8 3 10 13 11 9 13 11 12 17 14 25 21 11 15 19 19 20 18 17 17 22 23 23 22 19 16 15 16 15 14 13 12 8 6 6 4 5 5 5 5 5 8 9 8 8 8 8
4 1 6 16 12 13 5 14 13 11 13 12 22 22 13 10 18 20 22 20 23 16 22 22 20 19 19 18 14 14 13 12 11 9 7 4 5 5 6 6 7 8 9 9 9 9 10 10 9
19 3 10 6 14 11 11 10 10 17 13 7 4 14 19 19 17 21 23 23 18 14 18 21 21 24 17 19 15 11 11 11 9 7 5 4 4 5 5 6 7 9 9 9 9 8 8 8 9
22 4 9 5 12 13 12 11 8 11 11 21 26 29 25 20 18 18 21 21 17 13 18 20 19 31 22 21 16 10 9 8 7 6 7 8 8 7 3 5 4 7 9 9 9 10 8 10 9
2 2 3 7 13 11 12 15 8 13 14 16 17 24 21 20 17 17 17 17 16 17 16 22 28 23 31 27 26 15 8 7 4 2 9 8 8 1 3 4 5 6 6 8 9 9 10 10 16
7 3 10 15 7 14 11 11 10 14 13 19 17 17 23 22 21 19 16 16 18 20 20 19 23 24 25 26 26 21 13 11 12 10 13 6 6 1 4 4 4 3 5 7 11 12 8 11 9
3 2 13 10 4 12 7 5 16 6 18 17 17 18 17 21 24 22 20 18 20 18 19 19 25 25 26 24 25 21 20 12 13 11 11 9 7 1 1 4 2 7 9 8 9 7 10 8 13
5 6 9 9 8 12 8 7 11 11 17 17 15 14 17 16 22 22 15 22 20 20 17 18 21 24 25 26 23 23 21 18 15 16 15 8 6 8 7 3 2 3 6 5 4 5 11 11 15
23 19 11 6 7 5 10 8 12 9 16 17 12 14 15 16 18 14 12 18 22 19 21 20 23 22 24 26 26 25 19 17 18 18 14 4 9 6 3 2 3 5 7 7 7 10 11 16 15
26 6 1 10 3 11 2 7 4 14 14 13 14 14 15 16 12 14 16 16 13 18 14 21 20 20 21 29 28 26 20 15 11 20 15 13 13 10 7 6 1 3 3 8 8 12 13 13 11
8 8 7 16 24 5 7 4 6 8 14 15 16 18 16 15 17 15 12 16 14 16 13 15 21 21 22 26 26 24 21 24 19 16 14 15 9 13 11 2 5 8 2 11 14 15 12 13 12
9 5 8 5 29 9 18 5 13 13 10 21 21 18 17 15 16 16 13 14 14 13 15 14 20 21 23 21 22 20 20 19 21 23 14 11 9 5 9 3 6 8 2 11 9 15 14 12 13
7 12 8 17 12 21 20 7 8 12 13 9 19 20 22 20 21 19 16 15 15 14 14 13 16 22 21 21 20 17 13 12 14 21 18 12 11 6 11 4 8 8 6 11 12 14 13 13 15
16 18 6 14 20 18 18 21 20 18 12 6 6 25 21 23 22 20 21 18 15 14 15 14 17 22 23 20 20 20 21 17 14 19 20 17 14 13 9 8 4 3 8 13 13 13 15 12 9
11 16 2 13 12 22 15 14 21 22 24 26 29 12 21 22 23 23 24 20 17 14 13 17 17 20 23 21 18 17 15 10 10 15 22 19 17 11 8 7 7 5 10 14 15 17 15 10 10
20 5 3 9 11 14 12 13 20 17 23 27 29 33 19 15 26 25 25 21 20 15 12 18 15 18 20 21 19 17 14 12 12 12 18 19 19 14 13 12 10 12 13 12 17 15 10 11 9
25 5 6 14 13 10 8 12 12 23 25 27 35 29 27 38 28 26 27 24 22 17 14 14 14 14 17 19 20 23 22 18 15 12 10 16 16 18 16 12 9 13 13 13 12 9 7 8 7
4 5 10 16 19 12 11 6 9 9 10 22 30 35 31 27 29 27 29 25 25 19 17 16 14 13 14 18 19 21 24 20 15 12 14 9 11 13 15 14 12 12 12 12 8 5 9 7 8
15 6 17 12 7 4 5 6 6 10 19 12 26 35 31 23 24 28 28 25 26 20 17 14 14 15 14 14 19 18 20 23 19 15 11 7 12 10 5 8 9 10 9 7 5 8 8 8 7
18 12 4 6 1 3 6 5 10 19 19 26 24 35 34 42 26 25 32 27 25 23 20 19 15 14 13 10 13 14 19 19 19 21 18 12 9 9 7 6 10 6 6 5 5 7 5 6 7
14 13 4 6 4 1 4 5 10 28 44 12 27 28 33 34 25 29 35 33 30 25 24 21 20 16 15 17 14 10 13 18 16 17 14 14 10 10 13 12 8 5 5 5 5 2 3 5 8
13 15 6 10 12 12 5 2 5 23 12 7 22 25 33 26 20 29 34 33 30 25 25 18 17 17 16 15 16 14 14 17 15 18 16 12 11 9 7 6 4 4 4 0 5 4 5 5 7
18 8 3 6 6 7 6 5 5 22 17 9 17 23 27 26 33 28 27 24 25 22 24 21 15 18 17 15 16 12 17 16 14 13 10 8 7 7 5 3 3 3 2 3 7 3 3 5 4
9 11 10 17 4 10 1 4 10 25 19 14 16 24 28 29 32 30 27 26 24 24 25 25 18 19 13 16 18 13 12 14 14 12 12 6 4 5 5 4 4 4 3 5 7 3 2 6 5
13 18 16 13 13 1 1 1 7 24 25 29 15 24 31 34 30 35 30 30 26 26 26 25 21 21 16 16 18 19 20 14 12 11 5 7 4 5 6 4 4 4 5 4 10 8 7 6 6
Wind_Direction
130 44 1 355 264 80 70 121 70 29 53 51 69 74 59 55 52 98 124 111 119 127 132 134 133 128 127 128 129 130 129 127 128 126 122 125 126 127 127 126 122 116 109 101 92 95 81 29 24
70 319 311 278 185 98 67 74 104 154 72 60 77 83 68 75 80 121 114 113 119 130 135 136 136 132 130 131 132 133 132 128 126 125 124 125 128 132 135 132 123 110 103 109 99 90 80 67 58
160 227 241 244 129 100 104 87 86 116 129 117 95 52 68 63 93 106 112 117 115 124 137 135 138 135 135 135 136 137 135 129 125 126 127 125 126 128 131 131 123 92 111 111 106 75 41 75 87
186 263 239 245 90 107 114 148 190 108 94 107 103 75 79 99 105 116 115 118 127 134 139 136 138 137 137 138 139 141 137 131 128 125 127 129 131 133 134 135 115 116 119 117 84 97 105 105 101
242 230 328 81 87 93 142 162 127 107 118 94 94 93 95 121 125 120 115 113 116 129 140 140 138 135 137 136 142 147 139 137 129 125 127 130 126 126 123 122 115 104 103 105 111 118 114 107 93
248 171 219 93 92 99 107 138 144 99 97 102 104 115 104 110 119 124 121 120 119 131 143 146 149 145 135 140 141 142 140 133 129 130 134 136 132 108 108 112 105 100 100 105 111 106 100 90 80
179 142 95 127 113 90 106 117 107 132 97 62 125 116 126 124 113 123 119 119 126 137 147 151 156 150 134 139 143 144 145 142 144 147 146 144 122 107 97 100 99 101 103 105 101 93 84 72 54
241 282 56 7 112 103 84 99 104 87 66 92 152 137 139 141 116 122 126 119 129 142 151 148 154 152 142 137 138 142 145 147 146 153 139 121 106 95 92 98 91 98 96 90 88 77 79 63 50
339 25 121 196 102 117 129 95 73 115 117 63 63 106 128 137 138 125 116 128 144 135 152 145 143 173 154 159 150 143 156 150 151 151 120 111 70 81 57 77 88 89 79 70 55 46 45 22 353
186 342 207 130 102 122 126 112 154 120 101 95 96 113 119 139 144 144 132 144 145 145 143 151 153 154 172 171 174 160 150 124 117 158 122 104 130 91 151 40 79 76 69 27 17 9 0 4 352
245 284 68 78 78 121 114 140 158 135 139 129 126 137 136 155 156 150 149 151 147 154 154 160 162 167 175 171 174 177 171 167 201 198 133 131 163 81 202 24 28 9 353 11 0 346 2 353 324
259 1 87 80 116 120 96 129 99 105 112 120 137 139 151 163 159 157 148 161 153 155 166 173 164 166 173 179 176 179 178 195 201 166 136 138 170 97 59 215 52 354 332 321 346 355 322 314 302
336 280 94 106 113 85 137 191 91 100 116 128 131 149 140 145 149 145 141 169 159 158 169 179 176 179 182 181 175 170 192 200 170 144 136 161 248 206 178 350 131 324 349 303 348 309 307 307 332
221 296 109 138 95 121 117 107 128 150 134 134 156 147 140 132 134 133 133 143 156 155 161 178 179 184 185 180 177 180 185 188 177 163 160 147 177 159 210 264 185 274 333 339 309 319 339 349 340
211 219 334 91 1 97 147 152 49 149 160 152 170 146 145 142 146 156 158 159 163 158 180 181 191 190 194 186 188 191 187 176 181 171 174 164 187 184 168 188 318 311 262 327 325 327 341 332 313
91 49 29 321 327 355 148 190 271 202 177 176 178 162 153 160 136 142 140 150 160 176 196 185 188 185 189 189 200 203 218 206 196 182 177 177 183 171 143 88 298 289 200 349 322 333 310 306 310
29 144 137 270 312 316 281 169 239 274 265 191 175 177 165 154 148 153 151 153 164 189 197 192 191 187 194 194 195 208 207 206 222 208 198 187 150 183 167 107 292 288 358 332 300 299 318 325 322
80 271 186 178 230 245 239 177 177 174 304 334 320 183 170 180 168 162 160 156 163 176 194 205 200 187 190 188 181 173 182 211 208 203 204 202 159 209 179 136 296 304 356 303 292 309 332 329 334
180 224 170 194 210 222 249 174 181 187 212 173 236 250 179 186 164 167 160 156 166 169 183 201 199 193 192 195 194 196 196 196 221 218 206 202 202 196 194 183 234 333 307 296 332 326 321 317 316
231 228 295 274 212 204 225 203 183 190 192 207 216 259 191 168 177 172 164 162 173 184 194 198 203 200 197 198 203 196 187 190 239 213 203 205 208 212 202 241 242 276 298 318 326 316 321 331 343
273 165 148 274 265 210 251 253 162 198 213 212 224 184 202 199 182 168 166 164 169 175 203 188 198 199 202 203 198 188 170 195 211 188 201 214 213 224 231 236 261 285 310 320 299 315 325 339 12
254 44 259 256 281 282 199 268 237 185 202 208 214 187 173 220 182 176 167 165 168 167 180 187 195 194 194 200 206 187 177 189 204 204 211 218 225 229 237 247 267 279 304 311 317 325 341 334 335
49 52 319 284 285 338 19 2 339 331 232 203 184 189 185 204 182 175 166 166 167 166 169 183 184 194 194 198 195 199 196 191 194 195 212 224 238 243 246 253 262 288 301 307 309 324 345 324 322
128 59 303 318 18 344 195 119 262 249 231 268 186 172 173 219 177 166 185 162 161 163 168 182 190 182 202 200 199 198 196 194 184 188 210 219 232 230 263 262 272 280 299 306 300 300 319 325 344
171 157 218 200 115 226 353 199 265 281 239 223 187 157 181 189 168 166 167 169 171 168 173 177 201 188 186 190 195 204 205 196 190 188 202 196 234 206 261 258 263 270 295 297 312 303 331 3 8
291 271 212 259 243 178 286 231 286 281 283 205 175 174 177 185 173 166 163 164 169 170 177 187 189 190 195 192 186 208 193 189 186 180 189 204 207 209 217 247 239 277 277 294 303 11 68 19 39
228 250 24 262 245 269 162 136 271 287 294 211 171 160 151 173 150 157 167 166 166 168 182 197 191 189 208 203 190 206 180 166 180 174 191 203 206 206 195 209 239 251 279 313 61 319 290 103 71
248 119 10 286 265 316 96 71 213 280 293 184 149 160 167 170 166 163 164 170 168 175 180 185 204 190 195 197 187 173 164 164 190 193 180 181 187 189 202 221 203 209 199 166 147 279 71 140 142
206 195 205 271 265 282 36 216 246 239 268 276 173 176 169 171 163 161 163 170 172 178 180 181 192 190 199 192 171 174 163 196 183 181 177 196 186 186 200 204 206 202 203 143 184 259 94 105 116
232 274 241 236 248 227 58 119 43 288 290 265 196 181 169 164 160 169 170 164 170 177 179 184 180 195 181 184 179 181 188 187 176 165 218 204 192 175 174 217 185 187 142 136 144 146 112 102 93
Height
1504 1501 1498 1500 1502 1487 1504 1506 1495 1500 1497 1494 1493 1496 1502 1504 1505 1531 1531 1533 1534 1535 1536 1539 1542 1545 1546 1549 1551 1554 1556 1558 1559 1560 1562 1563 1565 1566 1567 1569 1570 1571 1572 1573 1573 1573 1573 1574 1574
1503 1504 1502 1500 1507 1507 1511 1496 1507 1500 1497 1496 1498 1502 1509 1517 1520 1526 1532 1535 1536 1538 1539 1542 1545 1548 1550 1553 1555 1557 1560 1562 1563 1565 1566 1567 1568 1570 1571 1572 1572 1573 1574 1574 1574 1575 1574 1574 1574
1504 1504 1504 1499 1493 1507 1510 1506 1500 1497 1498 1497 1502 1508 1513 1523 1525 1529 1534 1536 1538 1540 1542 1545 1548 1551 1553 1555 1558 1560 1563 1565 1567 1569 1570 1571 1572 1573 1574 1574 1575 1575 1575 1575 1575 1576 1575 1575 1575
1502 1503 1498 1497 1494 1496 1501 1503 1497 1497 1497 1498 1503 1513 1521 1526 1529 1532 1536 1538 1538 1541 1544 1545 1550 1553 1555 1557 1560 1563 1566 1568 1570 1572 1573 1574 1575 1575 1576 1576 1576 1576 1576 1576 1576 1576 1576 1575 1576
1500 1492 1493 1488 1493 1490 1494 1496 1496 1500 1499 1504 1507 1519 1524 1527 1530 1533 1538 1539 1541 1542 1545 1549 1552 1555 1557 1559 1563 1566 1568 1570 1571 1575 1576 1577 1577 1577 1578 1577 1577 1577 1577 1577 1577 1577 1577 1577 1577
1494 1492 1496 1496 1494 1491 1490 1493 1493 1496 1500 1504 1509 1521 1529 1531 1531 1535 1537 1541 1543 1543 1546 1549 1552 1555 1558 1560 1567 1569 1571 1573 1574 1575 1578 1579 1579 1579 1579 1579 1579 1579 1579 1579 1579 1579 1579 1578 1579
1492 1486 1482 1489 1494 1495 1491 1490 1493 1497 1499 1504 1509 1519 1533 1532 1533 1537 1539 1543 1544 1545 1547 1550 1554 1559 1561 1563 1569 1572 1573 1575 1576 1578 1580 1581 1581 1580 1580 1580 1580 1580 1581 1581 1581 1581 1580 1580 1580
1498 1474 1484 1484 1492 1500 1492 1493 1494 1499 1506 1508 1509 1513 1529 1534 1535 1539 1541 1544 1546 1547 1549 1551 1554 1558 1562 1566 1570 1574 1576 1577 1578 1579 1581 1583 1583 1582 1582 1582 1583 1583 1583 1583 1583 1582 1582 1581 1580
1485 1485 1493 1492 1488 1495 1495 1496 1501 1504 1506 1510 1513 1517 1528 1534 1538 1539 1543 1546 1547 1549 1550 1553 1554 1554 1560 1565 1569 1574 1578 1579 1580 1581 1581 1584 1583 1584 1585 1584 1585 1585 1585 1585 1585 1584 1583 1582 1581
1496 1490 1489 1480 1481 1487 1491 1496 1501 1505 1508 1517 1520 1524 1529 1535 1538 1541 1543 1546 1548 1551 1551 1554 1556 1557 1560 1563 1565 1570 1577 1580 1582 1583 1583 1585 1586 1587 1587 1587 1587 1587 1586 1586 1586 1584 1583 1583 1579
1491 1482 1477 1482 1485 1487 1492 1497 1499 1501 1506 1513 1520 1523 1527 1530 1536 1540 1544 1548 1549 1551 1553 1554 1556 1559 1562 1565 1568 1568 1576 1580 1582 1583 1583 1585 1588 1588 1587 1587 1588 1587 1586 1586 1586 1584 1583 1582 1582
1490 1477 1480 1487 1487 1490 1493 1497 1498 1504 1507 1513 1519 1522 1524 1527 1536 1537 1540 1547 1549 1551 1553 1556 1558 1560 1563 1566 1568 1569 1573 1578 1582 1583 1584 1586 1588 1588 1588 1589 1587 1587 1587 1586 1586 1586 1585 1583 1579
1491 1483 1484 1488 1489 1495 1500 1498 1501 1506 1511 1516 1520 1521 1523 1528 1530 1535 1538 1543 1549 1550 1552 1555 1558 1560 1562 1565 1567 1571 1574 1578 1581 1582 1583 1585 1585 1587 1588 1588 1588 1590 1588 1587 1586 1585 1583 1582 1578
1494 1485 1484 1489 1492 1496 1499 1502 1504 1510 1513 1518 1521 1521 1524 1527 1531 1536 1540 1542 1547 1550 1552 1554 1556 1559 1561 1564 1568 1571 1573 1576 1577 1581 1581 1582 1585 1587 1587 1589 1588 1588 1587 1587 1585 1584 1583 1581 1578
1485 1490 1485 1491 1495 1497 1502 1506 1509 1510 1513 1517 1520 1522 1524 1528 1531 1534 1537 1543 1545 1548 1550 1553 1555 1557 1559 1563 1566 1569 1572 1574 1576 1578 1579 1581 1582 1585 1587 1587 1589 1587 1587 1586 1585 1584 1583 1581 1577
1487 1506 1521 1508 1510 1503 1502 1521 1511 1511 1512 1514 1516 1520 1522 1529 1530 1534 1537 1540 1545 1545 1548 1551 1554 1557 1558 1562 1564 1568 1570 1573 1574 1577 1578 1579 1582 1584 1586 1587 1588 1587 1587 1586 1585 1583 1581 1579 1575
1503 1528 1533 1536 1509 1524 1513 1514 1508 1508 1508 1508 1511 1514 1520 1526 1529 1532 1537 1539 1543 1543 1546 1548 1552 1555 1557 1560 1563 1566 1569 1571 1571 1575 1578 1579 1581 1584 1585 1585 1586 1586 1586 1586 1583 1581 1580 1578 1574
1529 1521 1523 1525 1520 1510 1509 1508 1503 1506 1510 1509 1517 1511 1514 1521 1524 1529 1534 1537 1541 1543 1545 1547 1549 1553 1555 1558 1561 1565 1568 1570 1570 1573 1576 1578 1580 1583 1583 1584 1586 1585 1585 1584 1582 1581 1579 1578 1575
1493 1501 1504 1503 1497 1503 1492 1499 1497 1505 1506 1507 1513 1511 1508 1515 1520 1526 1529 1535 1538 1542 1544 1545 1547 1550 1553 1556 1559 1562 1565 1567 1568 1571 1574 1576 1579 1580 1582 1583 1584 1584 1584 1583 1581 1579 1578 1577 1574
1484 1495 1500 1488 1494 1494 1488 1492 1503 1500 1498 1496 1505 1514 1507 1513 1517 1523 1526 1531 1535 1538 1540 1542 1544 1548 1551 1554 1557 1561 1563 1565 1566 1566 1572 1575 1578 1579 1580 1582 1583 1583 1582 1582 1581 1579 1577 1577 1575
1484 1488 1496 1500 1484 1479 1483 1487 1498 1498 1498 1496 1497 1502 1506 1509 1515 1516 1522 1528 1532 1536 1537 1540 1543 1546 1549 1552 1556 1559 1562 1565 1566 1568 1571 1573 1575 1577 1579 1580 1581 1581 1581 1580 1579 1578 1576 1574 1575
1492 1479 1485 1488 1486 1500 1469 1501 1473 1473 1484 1487 1490 1496 1500 1508 1510 1513 1517 1525 1529 1533 1538 1539 1542 1544 1548 1551 1553 1556 1559 1562 1565 1567 1569 1572 1574 1576 1577 1579 1580 1579 1579 1579 1578 1576 1575 1574 1574
1480 1479 1489 1483 1486 1488 1515 1521 1503 1487 1471 1467 1476 1486 1493 1497 1502 1508 1513 1519 1524 1531 1534 1538 1541 1543 1546 1549 1552 1554 1557 1561 1563 1566 1568 1570 1572 1574 1575 1577 1578 1578 1578 1578 1578 1576 1575 1574 1573
1480 1490 1489 1501 1504 1523 1523 1536 1520 1501 1478 1470 1466 1478 1489 1502 1498 1505 1512 1517 1523 1529 1534 1537 1540 1542 1544 1547 1549 1552 1555 1558 1561 1564 1567 1569 1571 1573 1575 1575 1576 1576 1577 1577 1576 1576 1574 1573 1571
1468 1490 1516 1528 1515 1536 1511 1523 1500 1478 1469 1462 1461 1473 1481 1486 1493 1501 1510 1514 1523 1527 1532 1536 1538 1541 1543 1544 1548 1550 1553 1556 1559 1562 1566 1569 1570 1571 1573 1573 1574 1575 1575 1574 1575 1575 1573 1572 1571
1470 1464 1490 1523 1519 1520 1518 1525 1510 1493 1463 1448 1454 1464 1472 1484 1488 1495 1503 1510 1520 1524 1529 1533 1537 1540 1542 1544 1547 1548 1551 1554 1557 1561 1564 1567 1569 1570 1571 1572 1573 1573 1573 1573 1573 1572 1572 1572 1571
1464 1484 1468 1484 1479 1488 1513 1506 1498 1471 1453 1447 1449 1460 1471 1480 1488 1496 1502 1510 1517 1522 1527 1531 1535 1539 1539 1542 1545 1547 1550 1553 1557 1560 1562 1564 1566 1568 1569 1570 1572 1571 1572 1572 1571 1572 1571 1571 1570
1450 1458 1494 1479 1500 1500 1510 1529 1531 1487 1460 1449 1451 1459 1467 1476 1485 1493 1501 1508 1515 1521 1527 1530 1533 1537 1538 1542 1544 1547 1550 1553 1557 1559 1562 1563 1565 1567 1568 1568 1569 1570 1570 1571 1571 1569 1570 1569 1568
1452 1460 1462 1454 1463 1487 1507 1531 1485 1480 1465 1457 1451 1456 1463 1472 1482 1491 1498 1505 1513 1520 1525 1530 1533 1537 1538 1540 1543 1547 1551 1554 1556 1559 1562 1563 1562 1565 1567 1567 1568 1568 1568 1569 1570 1569 1569 1568 1568
1438 1445 1446 1465 1471 1473 1484 1494 1488 1482 1467 1459 1450 1451 1458 1469 1479 1488 1495 1502 1510 1517 1523 1528 1533 1534 1537 1540 1543 1547 1551 1553 1557 1560 1562 1563 1563 1564 1565 1566 1566 1567 1567 1568 1569 1569 1569 1568 1569